,,Stat6,,Stat2,,Stat8,,Stat9,,Stat10,,Wind1,,Wind1,
time,status,PA1M_AVG,status,PR1M_SUM,status,RH1M_AVG,status,SR1M_AVG,status,TA1M_AVG,status,W1dAve1m,status,W1sAve1m,
2009-03-22, 00:00:00,VALID,918.822,VALID,0,VALID,100,VALID,-0.0169808,VALID,20.1189,VALID,17,VALID,0,
2009-03-22, 00:01:00,VALID,918.812,VALID,0,VALID,100,VALID,0,VALID,20.1284,VALID,17,VALID,0,
2009-03-22, 00:02:00,VALID,918.818,VALID,0,VALID,100,VALID,-0.0169808,VALID,20.1444,VALID,17,VALID,0,
2009-03-22, 00:03:00,VALID,918.825,VALID,0,VALID,100,VALID,-0.0339617,VALID,20.1643,VALID,17,VALID,0,
2009-03-22, 00:04:00,VALID,918.813,VALID,0,VALID,100,VALID,-0.0679233,VALID,20.1673,VALID,17,VALID,0,
2009-03-22, 00:05:00,VALID,918.802,VALID,0,VALID,100,VALID,-0.0339617,VALID,20.1713,VALID,17,VALID,0,
2009-03-22, 00:06:00,VALID,918.777,VALID,0,VALID,100,VALID,-0.0169808,VALID,20.1576,VALID,17,VALID,0,
2009-03-22, 00:07:00,VALID,918.77,VALID,0,VALID,100,VALID,0.0169808,VALID,20.1576,VALID,17,VALID,0,
2009-03-22, 00:08:00,VALID,918.746,VALID,0,VALID,100,VALID,-0.0679233,VALID,20.1835,VALID,17,VALID,0,
2009-03-22, 00:09:00,VALID,918.736,VALID,0,VALID,100,VALID,-0.0849042,VALID,20.206,VALID,17,VALID,0,
2009-03-22, 00:10:00,VALID,918.712,VALID,0,VALID,100,VALID,0,VALID,20.2262,VALID,17,VALID,0,
2009-03-22, 00:11:00,VALID,918.71,VALID,0,VALID,100,VALID,-0.0339617,VALID,20.219,VALID,17,VALID,0,
2009-03-22, 00:12:00,VALID,918.709,VALID,0,VALID,100,VALID,-0.0679233,VALID,20.2128,VALID,17,VALID,0,
2009-03-22, 00:13:00,VALID,918.696,VALID,0,VALID,100,VALID,-0.0509425,VALID,20.2093,VALID,356,VALID,0,
2009-03-22, 00:14:00,VALID,918.695,VALID,0,VALID,100,VALID,-0.0509425,VALID,20.1965,VALID,258,VALID,0,
2009-03-22, 00:15:00,VALID,918.69,VALID,0,VALID,100,VALID,-0.0169808,VALID,20.1703,VALID,247,VALID,0,
2009-03-22, 00:16:00,VALID,918.68,VALID,0,VALID,100,VALID,-0.0509425,VALID,20.1481,VALID,233,VALID,0,
2009-03-22, 00:17:00,VALID,918.661,VALID,0,VALID,100,VALID,-0.0339617,VALID,20.1349,VALID,233,VALID,0,
2009-03-22, 00:18:00,VALID,918.663,VALID,0,VALID,100,VALID,0.0509425,VALID,20.1374,VALID,233,VALID,0,
2009-03-22, 00:19:00,VALID,918.667,VALID,0,VALID,100,VALID,0.0339617,VALID,20.1241,VALID,232,VALID,0,
2009-03-22, 00:20:00,VALID,918.664,VALID,0,VALID,100,VALID,0.0169808,VALID,20.1139,VALID,229,VALID,0,
2009-03-22, 00:21:00,VALID,918.642,VALID,0,VALID,100,VALID,0.0339617,VALID,20.0974,VALID,215,VALID,0,
2009-03-22, 00:22:00,VALID,918.622,VALID,0,VALID,100,VALID,0.0509425,VALID,20.0877,VALID,196,VALID,0,
2009-03-22, 00:23:00,VALID,918.615,VALID,0,VALID,100,VALID,0.0339617,VALID,20.0784,VALID,196,VALID,0,
2009-03-22, 00:24:00,VALID,918.595,VALID,0,VALID,100,VALID,-0.0509425,VALID,20.0697,VALID,135,VALID,0,
2009-03-22, 00:25:00,VALID,918.575,VALID,0,VALID,100,VALID,-0.0509425,VALID,20.0727,VALID,52,VALID,0,
2009-03-22, 00:26:00,VALID,918.577,VALID,0,VALID,100,VALID,-0.0679233,VALID,20.0762,VALID,47,VALID,0,
2009-03-22, 00:27:00,VALID,918.552,VALID,0,VALID,100,VALID,-0.0509425,VALID,20.0765,VALID,47,VALID,0,
2009-03-22, 00:28:00,VALID,918.529,VALID,0,VALID,100,VALID,-0.0339617,VALID,20.0692,VALID,47,VALID,0,
2009-03-22, 00:29:00,VALID,918.507,VALID,0,VALID,100,VALID,-0.0339617,VALID,20.0562,VALID,47,VALID,0,
2009-03-22, 00:30:00,VALID,918.482,VALID,0,VALID,100,VALID,-0.0169808,VALID,20.0403,VALID,47,VALID,0,
2009-03-22, 00:31:00,VALID,918.479,VALID,0,VALID,100,VALID,-0.0169808,VALID,20.0308,VALID,47,VALID,0,
2009-03-22, 00:32:00,VALID,918.473,VALID,0,VALID,100,VALID,-0.0169808,VALID,20.024,VALID,47,VALID,0,
2009-03-22, 00:33:00,VALID,918.464,VALID,0,VALID,100,VALID,-0.0169808,VALID,20.0175,VALID,47,VALID,0,
2009-03-22, 00:34:00,VALID,918.44,VALID,0,VALID,100,VALID,-0.0339617,VALID,20.014,VALID,47,VALID,0,
2009-03-22, 00:35:00,VALID,918.42,VALID,0,VALID,100,VALID,-0.0849042,VALID,20.0086,VALID,47,VALID,0,
2009-03-22, 00:36:00,VALID,918.385,VALID,0,VALID,100,VALID,0,VALID,19.9791,VALID,47,VALID,0,
2009-03-22, 00:37:00,VALID,918.341,VALID,0,VALID,100,VALID,-0.0679233,VALID,19.9626,VALID,47,VALID,0,
2009-03-22, 00:38:00,VALID,918.324,VALID,0,VALID,100,VALID,-0.0679233,VALID,19.9434,VALID,353,VALID,0,
2009-03-22, 00:39:00,VALID,918.302,VALID,0,VALID,100,VALID,-0.0679233,VALID,19.9432,VALID,355,VALID,0,
2009-03-22, 00:40:00,VALID,918.282,VALID,0,VALID,100,VALID,0,VALID,19.9591,VALID,355,VALID,0,
2009-03-22, 00:41:00,VALID,918.227,VALID,0,VALID,100,VALID,-0.0509425,VALID,19.9526,VALID,14,VALID,0,
2009-03-22, 00:42:00,VALID,918.211,VALID,0,VALID,100,VALID,-0.0509425,VALID,19.9207,VALID,58,VALID,0,
2009-03-22, 00:43:00,VALID,918.195,VALID,0,VALID,100,VALID,-0.0339617,VALID,19.878,VALID,63,VALID,0,
2009-03-22, 00:44:00,VALID,918.189,VALID,0,VALID,100,VALID,-0.0679233,VALID,19.8715,VALID,166,VALID,0,
2009-03-22, 00:45:00,VALID,918.179,VALID,0,VALID,100,VALID,-0.0509425,VALID,19.8813,VALID,202,VALID,0,
2009-03-22, 00:46:00,VALID,918.138,VALID,0,VALID,100,VALID,-0.0169808,VALID,19.9042,VALID,217,VALID,0,
2009-03-22, 00:47:00,VALID,918.092,VALID,0,VALID,100,VALID,-0.0849042,VALID,19.9172,VALID,11,VALID,0.0579268,
2009-03-22, 00:48:00,VALID,918.051,VALID,0,VALID,100,VALID,-0.0679233,VALID,19.9045,VALID,20,VALID,0,
2009-03-22, 00:49:00,VALID,918.044,VALID,0,VALID,100,VALID,-0.0849042,VALID,19.8945,VALID,19,VALID,0,
2009-03-22, 00:50:00,VALID,918.042,VALID,0,VALID,100,VALID,-0.0679233,VALID,19.8685,VALID,15,VALID,0,
2009-03-22, 00:51:00,VALID,918.042,VALID,0,VALID,100,VALID,-0.0849042,VALID,19.8393,VALID,333,VALID,0,
2009-03-22, 00:52:00,VALID,918.031,VALID,0,VALID,100,VALID,-0.0509425,VALID,19.8558,VALID,237,VALID,0,
2009-03-22, 00:53:00,VALID,917.979,VALID,0,VALID,100,VALID,-0.0169808,VALID,19.875,VALID,124,VALID,0,
2009-03-22, 00:54:00,VALID,917.971,VALID,0,VALID,100,VALID,0.0339617,VALID,19.8713,VALID,50,VALID,0,
2009-03-22, 00:55:00,VALID,917.955,VALID,0,VALID,100,VALID,0.0339617,VALID,19.8778,VALID,5,VALID,0,
2009-03-22, 00:56:00,VALID,917.917,VALID,0,VALID,100,VALID,0,VALID,19.8745,VALID,359,VALID,0,
2009-03-22, 00:57:00,VALID,917.919,VALID,0,VALID,100,VALID,0.0339617,VALID,19.8648,VALID,17,VALID,0,
2009-03-22, 00:58:00,VALID,917.899,VALID,0,VALID,100,VALID,0.0169808,VALID,19.8583,VALID,28,VALID,0,
2009-03-22, 00:59:00,VALID,917.865,VALID,0,VALID,100,VALID,0,VALID,19.8261,VALID,26,VALID,0.389509,
2009-03-22, 01:00:00,VALID,917.868,VALID,0,VALID,100,VALID,0.0169808,VALID,19.8066,VALID,25,VALID,0.0186012,
2009-03-22, 01:01:00,VALID,917.878,VALID,0,VALID,100,VALID,0.0169808,VALID,19.7804,VALID,12,VALID,0,
2009-03-22, 01:02:00,VALID,917.851,VALID,0,VALID,100,VALID,0,VALID,19.7869,VALID,16,VALID,0,
2009-03-22, 01:03:00,VALID,917.844,VALID,0,VALID,100,VALID,0,VALID,19.7966,VALID,25,VALID,0,
2009-03-22, 01:04:00,VALID,917.835,VALID,0,VALID,100,VALID,0.0169808,VALID,19.8029,VALID,25,VALID,0,
2009-03-22, 01:05:00,VALID,917.798,VALID,0,VALID,100,VALID,0.0169808,VALID,19.8226,VALID,39,VALID,0,
2009-03-22, 01:06:00,VALID,917.812,VALID,0,VALID,100,VALID,0.0169808,VALID,19.8296,VALID,39,VALID,0,
2009-03-22, 01:07:00,VALID,917.801,VALID,0,VALID,100,VALID,-0.0169808,VALID,19.8196,VALID,358,VALID,0,
2009-03-22, 01:08:00,VALID,917.797,VALID,0,VALID,100,VALID,0,VALID,19.8258,VALID,225,VALID,0,
2009-03-22, 01:09:00,VALID,917.763,VALID,0,VALID,100,VALID,0.0169808,VALID,19.8293,VALID,251,VALID,0,
2009-03-22, 01:10:00,VALID,917.747,VALID,0,VALID,100,VALID,0,VALID,19.8258,VALID,322,VALID,0,
2009-03-22, 01:11:00,VALID,917.731,VALID,0,VALID,100,VALID,0,VALID,19.8064,VALID,17,VALID,0,
2009-03-22, 01:12:00,VALID,917.734,VALID,0,VALID,100,VALID,0,VALID,19.7837,VALID,17,VALID,0,
2009-03-22, 01:13:00,VALID,917.753,VALID,0,VALID,100,VALID,0.0169808,VALID,19.7772,VALID,17,VALID,0,
2009-03-22, 01:14:00,VALID,917.752,VALID,0,VALID,100,VALID,0.0169808,VALID,19.7739,VALID,17,VALID,0,
2009-03-22, 01:15:00,VALID,917.737,VALID,0,VALID,100,VALID,0.0509425,VALID,19.7772,VALID,331,VALID,0,
2009-03-22, 01:16:00,VALID,917.728,VALID,0,VALID,100,VALID,0.0339617,VALID,19.7807,VALID,30,VALID,0,
2009-03-22, 01:17:00,VALID,917.707,VALID,0,VALID,100,VALID,0,VALID,19.761,VALID,27,VALID,0,
2009-03-22, 01:18:00,VALID,917.705,VALID,0,VALID,100,VALID,0.0169808,VALID,19.7512,VALID,15,VALID,0,
2009-03-22, 01:19:00,VALID,917.698,VALID,0,VALID,100,VALID,0,VALID,19.706,VALID,16,VALID,0,
2009-03-22, 01:20:00,VALID,917.693,VALID,0,VALID,100,VALID,-0.0169808,VALID,19.6863,VALID,16,VALID,0,
2009-03-22, 01:21:00,VALID,917.696,VALID,0,VALID,100,VALID,0.0339617,VALID,19.6766,VALID,16,VALID,0,
2009-03-22, 01:22:00,VALID,917.685,VALID,0,VALID,100,VALID,-0.0169808,VALID,19.6576,VALID,33,VALID,0,
2009-03-22, 01:23:00,VALID,917.694,VALID,0,VALID,100,VALID,-0.0509425,VALID,19.6524,VALID,41,VALID,0,
2009-03-22, 01:24:00,VALID,917.706,VALID,0,VALID,100,VALID,-0.118866,VALID,19.6264,VALID,41,VALID,0,
2009-03-22, 01:25:00,VALID,917.713,VALID,0,VALID,100,VALID,-0.118866,VALID,19.6104,VALID,41,VALID,0,
2009-03-22, 01:26:00,VALID,917.707,VALID,0,VALID,100,VALID,-0.118866,VALID,19.6104,VALID,41,VALID,0,
2009-03-22, 01:27:00,VALID,917.672,VALID,0,VALID,100,VALID,-0.101885,VALID,19.591,VALID,39,VALID,0,
2009-03-22, 01:28:00,VALID,917.636,VALID,0,VALID,100,VALID,-0.101885,VALID,19.5515,VALID,30,VALID,0,
2009-03-22, 01:29:00,VALID,917.616,VALID,0,VALID,100,VALID,-0.101885,VALID,19.5353,VALID,34,VALID,0.0320122,
2009-03-22, 01:30:00,VALID,917.594,VALID,0,VALID,100,VALID,-0.101885,VALID,19.5548,VALID,21,VALID,0.00195313,
2009-03-22, 01:31:00,VALID,917.579,VALID,0,VALID,100,VALID,-0.0679233,VALID,19.5645,VALID,21,VALID,0,
2009-03-22, 01:32:00,VALID,917.565,VALID,0,VALID,100,VALID,-0.101885,VALID,19.5775,VALID,21,VALID,0,
2009-03-22, 01:33:00,VALID,917.545,VALID,0,VALID,100,VALID,-0.101885,VALID,19.5872,VALID,257,VALID,0,
2009-03-22, 01:34:00,VALID,917.518,VALID,0,VALID,100,VALID,-0.101885,VALID,19.6199,VALID,262,VALID,0,
2009-03-22, 01:35:00,VALID,917.504,VALID,0,VALID,100,VALID,-0.0849042,VALID,19.6262,VALID,32,VALID,0,
2009-03-22, 01:36:00,VALID,917.49,VALID,0,VALID,100,VALID,-0.0849042,VALID,19.6554,VALID,26,VALID,0,
2009-03-22, 01:37:00,VALID,917.487,VALID,0,VALID,100,VALID,-0.118866,VALID,19.6651,VALID,24,VALID,0,
2009-03-22, 01:38:00,VALID,917.484,VALID,0,VALID,100,VALID,-0.0339617,VALID,19.6708,VALID,24,VALID,0,
2009-03-22, 01:39:00,VALID,917.487,VALID,0,VALID,100,VALID,0,VALID,19.6736,VALID,24,VALID,0,
2009-03-22, 01:40:00,VALID,917.483,VALID,0,VALID,100,VALID,0,VALID,19.6798,VALID,10,VALID,0,
2009-03-22, 01:41:00,VALID,917.477,VALID,0,VALID,100,VALID,0,VALID,19.703,VALID,20,VALID,0,
2009-03-22, 01:42:00,VALID,917.464,VALID,0,VALID,100,VALID,-0.0169808,VALID,19.6863,VALID,7,VALID,0,
2009-03-22, 01:43:00,VALID,917.458,VALID,0,VALID,100,VALID,0.0169808,VALID,19.6866,VALID,11,VALID,0,
2009-03-22, 01:44:00,VALID,917.439,VALID,0,VALID,100,VALID,0,VALID,19.6766,VALID,31,VALID,0,
2009-03-22, 01:45:00,VALID,917.43,VALID,0,VALID,100,VALID,0,VALID,19.6771,VALID,32,VALID,0.0397727,
2009-03-22, 01:46:00,VALID,917.431,VALID,0,VALID,100,VALID,-0.0169808,VALID,19.6479,VALID,19,VALID,0,
2009-03-22, 01:47:00,VALID,917.43,VALID,0,VALID,100,VALID,0.0339617,VALID,19.6377,VALID,16,VALID,0.0679506,
2009-03-22, 01:48:00,VALID,917.415,VALID,0,VALID,100,VALID,0.0339617,VALID,19.6349,VALID,19,VALID,0,
2009-03-22, 01:49:00,VALID,917.4,VALID,0,VALID,100,VALID,0.0169808,VALID,19.6085,VALID,14,VALID,0.117365,
2009-03-22, 01:50:00,VALID,917.373,VALID,0,VALID,100,VALID,0.0169808,VALID,19.6087,VALID,2,VALID,0,
2009-03-22, 01:51:00,VALID,917.348,VALID,0,VALID,100,VALID,0.0169808,VALID,19.609,VALID,8,VALID,0.00101902,
2009-03-22, 01:52:00,VALID,917.321,VALID,0,VALID,100,VALID,0.0169808,VALID,19.6152,VALID,15,VALID,0,
2009-03-22, 01:53:00,VALID,917.301,VALID,0,VALID,100,VALID,-0.0169808,VALID,19.6189,VALID,15,VALID,0,
2009-03-22, 01:54:00,VALID,917.294,VALID,0,VALID,100,VALID,-0.0169808,VALID,19.6189,VALID,15,VALID,0,
2009-03-22, 01:55:00,VALID,917.269,VALID,0,VALID,100,VALID,-0.0509425,VALID,19.6159,VALID,15,VALID,0,
2009-03-22, 01:56:00,VALID,917.239,VALID,0,VALID,100,VALID,-0.0679233,VALID,19.5962,VALID,15,VALID,0,
2009-03-22, 01:57:00,VALID,917.22,VALID,0,VALID,100,VALID,-0.0679233,VALID,19.5932,VALID,15,VALID,0,
2009-03-22, 01:58:00,VALID,917.189,VALID,0,VALID,100,VALID,-0.0679233,VALID,19.5967,VALID,15,VALID,0,
2009-03-22, 01:59:00,VALID,917.154,VALID,0,VALID,100,VALID,-0.0679233,VALID,19.5897,VALID,22,VALID,0,
2009-03-22, 02:00:00,VALID,917.148,VALID,0,VALID,100,VALID,-0.0509425,VALID,19.56,VALID,32,VALID,0,
2009-03-22, 02:01:00,VALID,917.142,VALID,0,VALID,100,VALID,0,VALID,19.5568,VALID,47,VALID,0,
2009-03-22, 02:02:00,VALID,917.122,VALID,0,VALID,100,VALID,-0.0509425,VALID,19.5605,VALID,330,VALID,0,
2009-03-22, 02:03:00,VALID,917.121,VALID,0,VALID,100,VALID,-0.0509425,VALID,19.5476,VALID,271,VALID,0,
2009-03-22, 02:04:00,VALID,917.093,VALID,0,VALID,100,VALID,-0.0509425,VALID,19.5248,VALID,261,VALID,0,
2009-03-22, 02:05:00,VALID,917.081,VALID,0,VALID,100,VALID,-0.0339617,VALID,19.5146,VALID,259,VALID,0,
2009-03-22, 02:06:00,VALID,917.061,VALID,0,VALID,100,VALID,-0.0679233,VALID,19.5316,VALID,318,VALID,0,
2009-03-22, 02:07:00,VALID,917.058,VALID,0,VALID,100,VALID,-0.0509425,VALID,19.5411,VALID,352,VALID,0,
2009-03-22, 02:08:00,VALID,917.033,VALID,0,VALID,100,VALID,0,VALID,19.5276,VALID,3,VALID,0,
2009-03-22, 02:09:00,VALID,917.009,VALID,0,VALID,100,VALID,0.0339617,VALID,19.5171,VALID,13,VALID,0,
2009-03-22, 02:10:00,VALID,916.991,VALID,0,VALID,100,VALID,0.0679233,VALID,19.4977,VALID,12,VALID,0,
2009-03-22, 02:11:00,VALID,916.977,VALID,0,VALID,100,VALID,0.0679233,VALID,19.4872,VALID,12,VALID,0,
2009-03-22, 02:12:00,VALID,916.957,VALID,0,VALID,100,VALID,0.0509425,VALID,19.4872,VALID,298,VALID,0,
2009-03-22, 02:13:00,VALID,916.935,VALID,0,VALID,100,VALID,0.0679233,VALID,19.4839,VALID,287,VALID,0,
2009-03-22, 02:14:00,VALID,916.913,VALID,0,VALID,100,VALID,0.0849042,VALID,19.4874,VALID,298,VALID,0,
2009-03-22, 02:15:00,VALID,916.906,VALID,0,VALID,100,VALID,0.0679233,VALID,19.4804,VALID,14,VALID,0,
2009-03-22, 02:16:00,VALID,916.901,VALID,0,VALID,100,VALID,0.0679233,VALID,19.4774,VALID,28,VALID,0,
2009-03-22, 02:17:00,VALID,916.901,VALID,0,VALID,100,VALID,0.0339617,VALID,19.458,VALID,14,VALID,0,
2009-03-22, 02:18:00,VALID,916.896,VALID,0,VALID,100,VALID,0.0339617,VALID,19.426,VALID,2,VALID,0,
2009-03-22, 02:19:00,VALID,916.878,VALID,0,VALID,100,VALID,0.0509425,VALID,19.3968,VALID,356,VALID,0.0586846,
2009-03-22, 02:20:00,VALID,916.877,VALID,0,VALID,100,VALID,0.0169808,VALID,19.3968,VALID,326,VALID,0,
2009-03-22, 02:21:00,VALID,916.871,VALID,0,VALID,100,VALID,0.0509425,VALID,19.4031,VALID,314,VALID,0.00109012,
2009-03-22, 02:22:00,VALID,916.878,VALID,0,VALID,100,VALID,0.101885,VALID,19.4258,VALID,291,VALID,0,
2009-03-22, 02:23:00,VALID,916.855,VALID,0,VALID,100,VALID,0.0169808,VALID,19.4592,VALID,257,VALID,0,
2009-03-22, 02:24:00,VALID,916.84,VALID,0,VALID,100,VALID,-0.0169808,VALID,19.4732,VALID,257,VALID,0,
2009-03-22, 02:25:00,VALID,916.815,VALID,0,VALID,100,VALID,-0.0169808,VALID,19.4887,VALID,257,VALID,0,
2009-03-22, 02:26:00,VALID,916.79,VALID,0,VALID,100,VALID,-0.0509425,VALID,19.4852,VALID,257,VALID,0,
2009-03-22, 02:27:00,VALID,916.78,VALID,0,VALID,100,VALID,-0.0339617,VALID,19.4986,VALID,257,VALID,0,
2009-03-22, 02:28:00,VALID,916.763,VALID,0,VALID,100,VALID,-0.0509425,VALID,19.4924,VALID,252,VALID,0,
2009-03-22, 02:29:00,VALID,916.743,VALID,0,VALID,100,VALID,-0.0679233,VALID,19.4792,VALID,234,VALID,0,
2009-03-22, 02:30:00,VALID,916.728,VALID,0,VALID,100,VALID,-0.0509425,VALID,19.4502,VALID,234,VALID,0,
2009-03-22, 02:31:00,VALID,916.709,VALID,0,VALID,100,VALID,-0.0849042,VALID,19.44,VALID,234,VALID,0,
2009-03-22, 02:32:00,VALID,916.695,VALID,0,VALID,100,VALID,0,VALID,19.4532,VALID,234,VALID,0,
2009-03-22, 02:33:00,VALID,916.691,VALID,0,VALID,100,VALID,-0.0169808,VALID,19.4368,VALID,234,VALID,0,
2009-03-22, 02:34:00,VALID,916.689,VALID,0,VALID,100,VALID,0,VALID,19.3916,VALID,236,VALID,0,
2009-03-22, 02:35:00,VALID,916.704,VALID,0,VALID,100,VALID,-0.0339617,VALID,19.3457,VALID,249,VALID,0,
2009-03-22, 02:36:00,VALID,916.711,VALID,0,VALID,100,VALID,-0.0339617,VALID,19.3137,VALID,262,VALID,0,
2009-03-22, 02:37:00,VALID,916.714,VALID,0,VALID,100,VALID,-0.0169808,VALID,19.2975,VALID,262,VALID,0,
2009-03-22, 02:38:00,VALID,916.7,VALID,0,VALID,100,VALID,-0.0339617,VALID,19.2843,VALID,262,VALID,0,
2009-03-22, 02:39:00,VALID,916.682,VALID,0,VALID,100,VALID,-0.0169808,VALID,19.2808,VALID,331,VALID,0,
2009-03-22, 02:40:00,VALID,916.675,VALID,0,VALID,100,VALID,-0.0339617,VALID,19.265,VALID,15,VALID,0,
2009-03-22, 02:41:00,VALID,916.662,VALID,0,VALID,100,VALID,-0.0169808,VALID,19.2294,VALID,17,VALID,0,
2009-03-22, 02:42:00,VALID,916.674,VALID,0,VALID,100,VALID,-0.0679233,VALID,19.1999,VALID,352,VALID,0,
2009-03-22, 02:43:00,VALID,916.659,VALID,0,VALID,100,VALID,-0.0679233,VALID,19.2032,VALID,294,VALID,0,
2009-03-22, 02:44:00,VALID,916.63,VALID,0,VALID,100,VALID,-0.0339617,VALID,19.2553,VALID,281,VALID,0,
2009-03-22, 02:45:00,VALID,916.614,VALID,0,VALID,100,VALID,-0.0679233,VALID,19.2848,VALID,296,VALID,0,
2009-03-22, 02:46:00,VALID,916.589,VALID,0,VALID,100,VALID,-0.0339617,VALID,19.2648,VALID,331,VALID,0,
2009-03-22, 02:47:00,VALID,916.586,VALID,0,VALID,100,VALID,-0.0509425,VALID,19.2646,VALID,331,VALID,0,
2009-03-22, 02:48:00,VALID,916.595,VALID,0,VALID,100,VALID,0,VALID,19.2745,VALID,331,VALID,0,
2009-03-22, 02:49:00,VALID,916.572,VALID,0,VALID,100,VALID,-0.0169808,VALID,19.2775,VALID,331,VALID,0,
2009-03-22, 02:50:00,VALID,916.581,VALID,0,VALID,100,VALID,0,VALID,19.2613,VALID,291,VALID,0,
2009-03-22, 02:51:00,VALID,916.572,VALID,0,VALID,100,VALID,-0.0339617,VALID,19.2129,VALID,203,VALID,0,
2009-03-22, 02:52:00,VALID,916.586,VALID,0,VALID,100,VALID,-0.0169808,VALID,19.1675,VALID,191,VALID,0,
2009-03-22, 02:53:00,VALID,916.581,VALID,0,VALID,100,VALID,-0.0339617,VALID,19.1348,VALID,191,VALID,0,
2009-03-22, 02:54:00,VALID,916.575,VALID,0,VALID,100,VALID,-0.0339617,VALID,19.1418,VALID,193,VALID,0,
2009-03-22, 02:55:00,VALID,916.554,VALID,0,VALID,100,VALID,-0.0509425,VALID,19.1283,VALID,193,VALID,0,
2009-03-22, 02:56:00,VALID,916.552,VALID,0,VALID,100,VALID,0,VALID,19.0535,VALID,193,VALID,0,
2009-03-22, 02:57:00,VALID,916.568,VALID,0,VALID,100,VALID,0,VALID,18.9986,VALID,193,VALID,0,
2009-03-22, 02:58:00,VALID,916.594,VALID,0,VALID,100,VALID,-0.0679233,VALID,19.0118,VALID,193,VALID,0,
2009-03-22, 02:59:00,VALID,916.603,VALID,0,VALID,100,VALID,-0.0169808,VALID,18.9726,VALID,193,VALID,0,
2009-03-22, 03:00:00,VALID,916.604,VALID,0,VALID,100,VALID,-0.0169808,VALID,18.9334,VALID,193,VALID,0,
2009-03-22, 03:01:00,VALID,916.574,VALID,0,VALID,100,VALID,-0.0849042,VALID,18.9112,VALID,193,VALID,0,
2009-03-22, 03:02:00,VALID,916.546,VALID,0,VALID,100,VALID,-0.0339617,VALID,18.8658,VALID,193,VALID,0,
2009-03-22, 03:03:00,VALID,916.516,VALID,0,VALID,100,VALID,-0.0339617,VALID,18.8433,VALID,193,VALID,0,
2009-03-22, 03:04:00,VALID,916.487,VALID,0,VALID,100,VALID,0,VALID,18.8234,VALID,193,VALID,0,
2009-03-22, 03:05:00,VALID,916.476,VALID,0,VALID,100,VALID,-0.0169808,VALID,18.8227,VALID,193,VALID,0,
2009-03-22, 03:06:00,VALID,916.454,VALID,0,VALID,100,VALID,-0.0169808,VALID,18.8104,VALID,193,VALID,0,
2009-03-22, 03:07:00,VALID,916.446,VALID,0,VALID,100,VALID,0,VALID,18.7942,VALID,193,VALID,0,
2009-03-22, 03:08:00,VALID,916.434,VALID,0,VALID,100,VALID,-0.0509425,VALID,18.7884,VALID,193,VALID,0,
2009-03-22, 03:09:00,VALID,916.435,VALID,0,VALID,100,VALID,-0.135847,VALID,18.7534,VALID,193,VALID,0,
2009-03-22, 03:10:00,VALID,916.419,VALID,0,VALID,100,VALID,-0.101885,VALID,18.7145,VALID,193,VALID,0,
2009-03-22, 03:11:00,VALID,916.426,VALID,0,VALID,100,VALID,-0.118866,VALID,18.6851,VALID,193,VALID,0,
2009-03-22, 03:12:00,VALID,916.43,VALID,0,VALID,100,VALID,-0.101885,VALID,18.6758,VALID,184,VALID,0,
2009-03-22, 03:13:00,VALID,916.417,VALID,0,VALID,100,VALID,-0.118866,VALID,18.6496,VALID,178,VALID,0,
2009-03-22, 03:14:00,VALID,916.419,VALID,0,VALID,100,VALID,-0.118866,VALID,18.6367,VALID,178,VALID,0,
2009-03-22, 03:15:00,VALID,916.425,VALID,0,VALID,100,VALID,-0.118866,VALID,18.6272,VALID,178,VALID,0,
2009-03-22, 03:16:00,VALID,916.427,VALID,0,VALID,100,VALID,-0.101885,VALID,18.6269,VALID,179,VALID,0,
2009-03-22, 03:17:00,VALID,916.425,VALID,0,VALID,100,VALID,-0.118866,VALID,18.6232,VALID,179,VALID,0,
2009-03-22, 03:18:00,VALID,916.414,VALID,0,VALID,100,VALID,-0.135847,VALID,18.6432,VALID,179,VALID,0,
2009-03-22, 03:19:00,VALID,916.399,VALID,0,VALID,100,VALID,-0.118866,VALID,18.6496,VALID,179,VALID,0,
2009-03-22, 03:20:00,VALID,916.384,VALID,0,VALID,100,VALID,-0.118866,VALID,18.6621,VALID,179,VALID,0,
2009-03-22, 03:21:00,VALID,916.381,VALID,0,VALID,100,VALID,-0.101885,VALID,18.711,VALID,179,VALID,0,
2009-03-22, 03:22:00,VALID,916.355,VALID,0,VALID,100,VALID,-0.101885,VALID,18.7333,VALID,179,VALID,0,
2009-03-22, 03:23:00,VALID,916.347,VALID,0,VALID,100,VALID,-0.0509425,VALID,18.7754,VALID,179,VALID,0,
2009-03-22, 03:24:00,VALID,916.335,VALID,0,VALID,100,VALID,-0.0169808,VALID,18.8102,VALID,179,VALID,0,
2009-03-22, 03:25:00,VALID,916.317,VALID,0,VALID,100,VALID,-0.0339617,VALID,18.8169,VALID,179,VALID,0,
2009-03-22, 03:26:00,VALID,916.302,VALID,0,VALID,100,VALID,-0.0169808,VALID,18.7977,VALID,179,VALID,0,
2009-03-22, 03:27:00,VALID,916.287,VALID,0,VALID,100,VALID,-0.0339617,VALID,18.7163,VALID,179,VALID,0,
2009-03-22, 03:28:00,VALID,916.29,VALID,0,VALID,100,VALID,-0.0339617,VALID,18.5933,VALID,156,VALID,0,
2009-03-22, 03:29:00,VALID,916.292,VALID,0,VALID,100,VALID,0,VALID,18.4958,VALID,53,VALID,0,
2009-03-22, 03:30:00,VALID,916.316,VALID,0,VALID,100,VALID,0,VALID,18.4504,VALID,53,VALID,0,
2009-03-22, 03:31:00,VALID,916.348,VALID,0,VALID,100,VALID,-0.0339617,VALID,18.4731,VALID,53,VALID,0,
2009-03-22, 03:32:00,VALID,916.374,VALID,0,VALID,100,VALID,0,VALID,18.4986,VALID,53,VALID,0,
2009-03-22, 03:33:00,VALID,916.397,VALID,0,VALID,100,VALID,-0.0339617,VALID,18.5315,VALID,53,VALID,0,
2009-03-22, 03:34:00,VALID,916.432,VALID,0,VALID,100,VALID,0.0339617,VALID,18.6056,VALID,53,VALID,0,
2009-03-22, 03:35:00,VALID,916.433,VALID,0,VALID,100,VALID,-0.0169808,VALID,18.6837,VALID,53,VALID,0,
2009-03-22, 03:36:00,VALID,916.455,VALID,0,VALID,100,VALID,0,VALID,18.7288,VALID,53,VALID,0,
2009-03-22, 03:37:00,VALID,916.479,VALID,0,VALID,100,VALID,-0.0169808,VALID,18.8201,VALID,53,VALID,0,
2009-03-22, 03:38:00,VALID,916.478,VALID,0,VALID,100,VALID,0,VALID,18.8591,VALID,53,VALID,0,
2009-03-22, 03:39:00,VALID,916.484,VALID,0,VALID,100,VALID,-0.0339617,VALID,18.765,VALID,58,VALID,0,
2009-03-22, 03:40:00,VALID,916.492,VALID,0,VALID,100,VALID,-0.0339617,VALID,18.6742,VALID,132,VALID,0,
2009-03-22, 03:41:00,VALID,916.517,VALID,0,VALID,100,VALID,-0.0339617,VALID,18.5963,VALID,132,VALID,0,
2009-03-22, 03:42:00,VALID,916.518,VALID,0,VALID,100,VALID,0.0169808,VALID,18.5569,VALID,116,VALID,0,
2009-03-22, 03:43:00,VALID,916.53,VALID,0,VALID,100,VALID,0,VALID,18.4634,VALID,58,VALID,0.0803052,
2009-03-22, 03:44:00,VALID,916.52,VALID,0,VALID,100,VALID,-0.0339617,VALID,18.3498,VALID,53,VALID,0,
2009-03-22, 03:45:00,VALID,916.513,VALID,0,VALID,100,VALID,-0.0509425,VALID,18.3663,VALID,53,VALID,0,
2009-03-22, 03:46:00,VALID,916.526,VALID,0,VALID,100,VALID,-0.0339617,VALID,18.3401,VALID,53,VALID,0,
2009-03-22, 03:47:00,VALID,916.533,VALID,0,VALID,100,VALID,-0.0339617,VALID,18.3179,VALID,53,VALID,0,
2009-03-22, 03:48:00,VALID,916.54,VALID,0,VALID,100,VALID,-0.101885,VALID,18.2915,VALID,53,VALID,0,
2009-03-22, 03:49:00,VALID,916.538,VALID,0,VALID,100,VALID,-0.0169808,VALID,18.269,VALID,53,VALID,0,
2009-03-22, 03:50:00,VALID,916.548,VALID,0,VALID,100,VALID,-0.0509425,VALID,18.2236,VALID,53,VALID,0,
2009-03-22, 03:51:00,VALID,916.567,VALID,0,VALID,100,VALID,-0.0509425,VALID,18.2266,VALID,53,VALID,0,
2009-03-22, 03:52:00,VALID,916.564,VALID,0,VALID,100,VALID,-0.0509425,VALID,18.285,VALID,53,VALID,0,